World > North America > United States > Texas > Colleyville   City of Colleyville, Texas

Colleyville, TX Hourly Weather Updates

Feedback E-mail the Weather

Quick Clicks

Colleyville, TX Weather Maps

°F °C°F °C
Colleyville Weather Map
UTC Time: 6/19/2024, 13:53
Your Time:

Colleyville, TX Regional Weather

Expires:202406191400;;293522
ASUS44 KFWD 191315
RWRTX 
NORTH TEXAS HOURLY WEATHER ROUNDUP
NATIONAL WEATHER SERVICE FORT WORTH TX
800 AM CDT WED JUN 19 2024

NOTE: "FAIR" INDICATES FEW OR NO CLOUDS BELOW 12,000 FEET WITH NO
SIGNIFICANT WEATHER AND/OR OBSTRUCTIONS TO VISIBILITY.


TXZ118-119-191400-
DALLAS/FORT WORTH METROPLEX
  
CITY           SKY/WX    TMP DP  RH WIND       PRES   REMARKS
DFW AIRPORT    PTSUNNY   77  71  82 E10       30.04R                  
DALLAS LOVE    PTSUNNY   77  72  84 E7        30.04R                  
FTW MEACHAM    FAIR      76  70  82 E10       30.03R                  
DAL-EXECUTIVE  CLOUDY    74  71  91 E12G18    30.03R                  
FTW-ALLIANCE   PTSUNNY   77  70  79 E9        30.04R                  
FTW-NAS-JRB    PTSUNNY   77  69  76 E9        30.04R                  
FTW-SPINKS     PTSUNNY   73  72  94 NE5       30.06R                  
ARLINGTON      CLOUDY    76  70  82 E7        30.04R                  
GRAND PRAIRIE  CLOUDY    75  70  83 E10       30.06R                  
ADDISON        PTSUNNY   75  70  83 NE7       30.07R                  
MESQUITE       MOSUNNY   75  72  88 E5        30.04R                  
LANCASTER      PTSUNNY   75  71  88 E6        30.05R                  
$$


SKY/WX - Weather  TMP - Temperature  DP - Dew Point  RH - Humidity
WIND - Wind Direction/Speed PRES - Barometric Pressure VSB - Visibility
WCI - Wind Chill Index E13G22 Wind - East Wind 13 mph/Gusts of 22 mph

Trending Headlines

Trending Entertainment Headlines

Colleyville Radar Loop

Use the map search tool if you want to place a location marker on the radar map...

Colleyville Quick Facts

National Two Day Weather Forecast


E-mail the Colleyville Weather Forecast

Voice your opinion or tell us about page issues...